Weather History for KGEZ - May, 2012

Change the Weather History Date:

Friday, May 4, 2012

  Actual Average Record
Temperature  
Mean Temperature 74 °F 59 °F  
Max Temperature 82 °F 70 °F 84 °F (2001)
Min Temperature 65 °F 48 °F 33 °F (2005)
Degree Days  
Heating Degree Days 0 7  
Month to date heating degree days 0 29  
Since 1 July heating degree days 4118 5289  
Cooling Degree Days 9 1  
Month to date cooling degree days 31 4  
Year to date cooling degree days 86 17  
Growing Degree Days 22 (Base 50)    
Moisture  
Dew Point 65 °F    
Average Humidity 76    
Maximum Humidity 93    
Minimum Humidity 58    
Precipitation  
Precipitation T in 0.20 in 1.17 in (2003)
Month to date precipitation 0.94 0.78  
Year to date precipitation 11.20 13.28  
Sea Level Pressure  
Sea Level Pressure 29.93 in    
Wind  
Wind Speed 7 mph (SW)    
Max Wind Speed 17 mph    
Max Gust Speed 22 mph    
Visibility 10 miles    
Events Rain    
T = Trace of Precipitation, MM = Missing Value Source: NWS Daily Summary

Daily Weather History Graph

Daily Weather History Graph

Search for Another Location

Airport or City:

Trip Planner

Search our weather history database for the weather conditions in past years. The results will help you decide how hot, cold, wet, or windy it might be!

Date:

Astronomy

May. 04, 2012 Rise Set
Actual Time 6:39 AM EDT 8:40 PM EDT
Civil Twilight 6:10 AM EDT 9:10 PM EDT
Nautical Twilight 5:34 AM EDT 9:46 PM EDT
Astronomical Twilight 4:55 AM EDT 10:25 PM EDT
Moon 7:18 PM EDT (5/4) 5:20 AM EDT (5/4)
Length of Visible Light 14h 59m
Length of Day
14h 00m
Waxing Gibbous, 97% of the Moon is Illuminated
May 4
Waxing Gibbous
May 5
Full
May 12
Last Quarter
May 20
New
May 28
First Quarter

Hourly Weather History & Observations

Time (EDT) Temp. Heat Index Dew Point Humidity Pressure Visibility Wind Dir Wind Speed Gust Speed Precip Events Conditions
12:53 AM 69.1 °F - 60.1 °F 73% 29.97 in 10.0 mi SSW 6.9 mph - N/A   Clear
1:53 AM 68.0 °F - 61.0 °F 78% 29.97 in 10.0 mi South 6.9 mph - N/A   Clear
2:53 AM 66.0 °F - 61.0 °F 84% 29.96 in 10.0 mi SSW 5.8 mph - N/A   Partly Cloudy
3:53 AM 66.9 °F - 62.1 °F 84% 29.96 in 10.0 mi South 4.6 mph - N/A   Overcast
4:53 AM 66.9 °F - 62.1 °F 84% 29.96 in 10.0 mi South 8.1 mph - N/A   Overcast
5:53 AM 66.0 °F - 62.1 °F 87% 29.94 in 10.0 mi South 6.9 mph - N/A   Partly Cloudy
6:53 AM 64.9 °F - 62.1 °F 90% 29.96 in 8.0 mi South 8.1 mph - N/A   Scattered Clouds
7:03 AM 64.4 °F - 62.6 °F 94% 29.98 in 9.0 mi SSW 6.9 mph - N/A   Mostly Cloudy
7:53 AM 66.9 °F - 64.0 °F 90% 29.95 in 8.0 mi South 8.1 mph - N/A   Overcast
8:53 AM 69.1 °F - 64.9 °F 87% 29.95 in 7.0 mi South 11.5 mph - N/A   Mostly Cloudy
9:53 AM 71.1 °F - 66.0 °F 84% 29.96 in 7.0 mi SSW 9.2 mph - N/A   Overcast
10:23 AM 73.4 °F - 66.2 °F 78% 29.98 in 9.0 mi SSW 11.5 mph - N/A   Scattered Clouds
10:53 AM 73.0 °F - 66.9 °F 81% 29.97 in 10.0 mi SW 11.5 mph - N/A   Mostly Cloudy
11:25 AM 73.4 °F - 66.2 °F 78% 29.99 in 10.0 mi SW 9.2 mph - N/A   Mostly Cloudy
11:53 AM 75.0 °F - 66.9 °F 76% 29.98 in 10.0 mi SSW 8.1 mph - N/A   Overcast
12:18 PM 75.2 °F - 66.2 °F 73% 29.99 in 10.0 mi WSW 12.7 mph - N/A   Overcast
12:53 PM 75.9 °F - 68.0 °F 76% 29.96 in 8.0 mi WSW 12.7 mph - 0.00 in Rain Light Rain
1:53 PM 78.1 °F - 66.9 °F 68% 29.89 in 10.0 mi SE 10.4 mph - 0.00 in   Scattered Clouds
2:53 PM 80.1 °F 82.3 °F 66.9 °F 64% 29.94 in 10.0 mi WSW 15.0 mph 21.9 mph N/A   Mostly Cloudy
3:53 PM 80.1 °F 81.9 °F 64.9 °F 60% 29.90 in 10.0 mi WSW 8.1 mph - N/A   Scattered Clouds
4:53 PM 81.0 °F 82.5 °F 64.0 °F 56% 29.88 in 10.0 mi SW 11.5 mph - N/A   Partly Cloudy
5:53 PM 80.1 °F 81.7 °F 64.0 °F 58% 29.87 in 10.0 mi Variable 3.5 mph - N/A   Clear
6:53 PM 80.1 °F 81.7 °F 64.0 °F 58% 29.86 in 10.0 mi Calm Calm - N/A   Clear
7:53 PM 78.1 °F - 66.0 °F 66% 29.87 in 10.0 mi WSW 4.6 mph - N/A   Mostly Cloudy
8:53 PM 77.0 °F - 66.9 °F 71% 29.88 in 10.0 mi WSW 8.1 mph - N/A   Clear
9:53 PM 73.9 °F - 66.9 °F 79% 29.86 in 10.0 mi West 3.5 mph - N/A   Scattered Clouds
10:53 PM 72.0 °F - 66.0 °F 81% 29.87 in 10.0 mi North 3.5 mph - N/A   Overcast
11:53 PM 69.1 °F - 62.1 °F 78% 29.88 in 10.0 mi Calm Calm - N/A   Mostly Cloudy